Location: Freemans Gardens
(41.6414°N, 83.6077°W)
Time: 21:44:22
(UTC+00:00)

Cosmos 1892 - Pass Details

Date: 29 October 2020
Orbit: 504 x 523 km, 82.5° (Epoch: 25 November)

Event Time Altitude Azimuth Distance (km) Brightness Sun altitude
Rises 23:15:29 0° 1° (N) 2,664 6.2 -8.7°
Reaches altitude 10° 23:17:47 10° 10° (N) 1,771 5.2 -9.1°
Maximum altitude 23:21:21 34° 77° (ENE) 876 3.3 -9.8°
Drops below altitude 10° 23:24:54 10° 144° (SE) 1,757 5.1 -10.4°
Sets 23:27:09 0° 153° (SSE) 2,639 6.1 -10.8°
